| time (UTC) | temp C | wind direction | speed KPH | gust KPH | rain 1hr cm | rain 24hr cm | rain mn cm | humidity % | barometer mb |
| 20260505200245 | 31 | 325 | 3.2 | 8.0 | 0.00 | 0.00 | 0.00 | 59 | 1005.3 |
| 20260505195244 | 30 | 276 | 4.8 | 8.0 | 0.00 | 0.00 | 0.00 | 60 | 1005.3 |
| 20260505194253 | 30 | 226 | 6.4 | 8.0 | 0.00 | 0.00 | 0.00 | 62 | 1005.3 |
| 20260505193251 | 30 | 230 | 6.4 | 14.5 | 0.00 | 0.00 | 0.00 | 62 | 1005.4 |
| 20260505192311 | 30 | 230 | 6.4 | 14.5 | 0.00 | 0.00 | 0.00 | 62 | 1005.4 |
| 20260505191249 | 29 | 149 | 1.6 | 22.5 | 0.00 | 0.00 | 0.00 | 64 | 1005.4 |
| 20260505190248 | 28 | 197 | 6.4 | 11.3 | 0.00 | 0.00 | 0.00 | 64 | 1005.7 |
| 20260505185306 | 28 | 186 | 6.4 | 12.9 | 0.00 | 0.00 | 0.00 | 64 | 1005.7 |
| 20260505184245 | 28 | 154 | 4.8 | 12.9 | 0.00 | 0.00 | 0.00 | 64 | 1005.7 |
| 20260505183244 | 28 | 279 | 4.8 | 12.9 | 0.00 | 0.00 | 0.00 | 64 | 1005.8 |
| 20260505182252 | 28 | 279 | 4.8 | 12.9 | 0.00 | 0.00 | 0.00 | 64 | 1005.8 |
| 20260505181251 | 28 | 74 | 1.6 | 20.9 | 0.00 | 0.00 | 0.00 | 64 | 1005.7 |
| 20260505180250 | 27 | 303 | 3.2 | 11.3 | 0.00 | 0.00 | 0.00 | 67 | 1005.8 |
| 20260505175249 | 27 | 273 | 3.2 | 14.5 | 0.00 | 0.00 | 0.00 | 67 | 1005.8 |
| 20260505174247 | 27 | 174 | 3.2 | 14.5 | 0.00 | 0.00 | 0.00 | 67 | 1005.8 |
| 20260505173246 | 27 | 223 | 9.7 | 11.3 | 0.00 | 0.00 | 0.00 | 68 | 1005.9 |
| 20260505172325 | 27 | 203 | 9.7 | 14.5 | 0.00 | 0.00 | 0.00 | 68 | 1005.9 |
| 20260505171244 | 27 | 148 | 8.0 | 14.5 | 0.00 | 0.00 | 0.00 | 68 | 1005.9 |
| 20260505170313 | 27 | 226 | 3.2 | 14.5 | 0.00 | 0.00 | 0.00 | 69 | 1005.9 |
| 20260505165251 | 27 | 221 | 4.8 | 14.5 | 0.00 | 0.00 | 0.00 | 69 | 1005.8 |
| 20260505164250 | 26 | 217 | 9.7 | 11.3 | 0.00 | 0.00 | 0.00 | 70 | 1005.8 |
| 20260505163249 | 26 | 170 | 3.2 | 6.4 | 0.00 | 0.00 | 0.00 | 70 | 1005.7 |
| 20260505162247 | 26 | 157 | 3.2 | 12.9 | 0.00 | 0.00 | 0.00 | 70 | 1005.6 |
| 20260505161246 | 26 | 42 | 1.6 | 12.9 | 0.00 | 0.00 | 0.00 | 71 | 1005.3 |
| 20260505160245 | 26 | 221 | 6.4 | 17.7 | 0.00 | 0.00 | 0.00 | 73 | 1005.3 |
| 20260505153251 | 25 | 195 | 3.2 | 14.5 | 0.00 | 0.00 | 0.00 | 75 | 1005.7 |
| 20260505152250 | 25 | 195 | 1.6 | 14.5 | 0.00 | 0.00 | 0.00 | 76 | 1005.7 |
| 20260505151249 | 25 | 0.0 | 11.3 | 0.00 | 0.00 | 0.00 | 76 | 1005.7 | |
| 20260505150247 | 24 | 205 | 4.8 | 12.9 | 0.00 | 0.00 | 0.00 | 79 | 1005.6 |
| 20260505140249 | 22 | 235 | 11.3 | 12.9 | 0.00 | 0.00 | 0.00 | 82 | 1005.5 |
| 20260505130251 | 22 | 138 | 1.6 | 12.9 | 0.00 | 0.00 | 0.00 | 84 | 1005.4 |
| 20260505124309 | 22 | 190 | 3.2 | 14.5 | 0.00 | 0.00 | 0.00 | 84 | 1004.8 |
| 20260505123308 | 22 | 156 | 4.8 | 12.9 | 0.00 | 0.00 | 0.00 | 84 | 1004.9 |
| 20260505122246 | 22 | 151 | 3.2 | 12.9 | 0.00 | 0.00 | 0.00 | 84 | 1004.9 |
| 20260505121245 | 22 | 118 | 1.6 | 4.8 | 0.00 | 0.00 | 0.00 | 84 | 1004.9 |
| 20260505120304 | 21 | 181 | 4.8 | 11.3 | 0.00 | 0.00 | 0.00 | 84 | 1004.7 |
| 20260505115252 | 21 | 176 | 4.8 | 14.5 | 0.00 | 0.00 | 0.00 | 84 | 1004.6 |
| 20260505114251 | 21 | 159 | 3.2 | 14.5 | 0.00 | 0.00 | 0.00 | 84 | 1004.6 |
| 20260505113249 | 21 | 135 | 3.2 | 9.7 | 0.00 | 0.00 | 0.00 | 84 | 1004.5 |
| 20260505112308 | 21 | 127 | 3.2 | 9.7 | 0.00 | 0.00 | 0.00 | 84 | 1004.5 |
| 20260505111247 | 21 | 117 | 4.8 | 9.7 | 0.00 | 0.00 | 0.00 | 84 | 1004.4 |
| 20260505110246 | 21 | 289 | 1.6 | 14.5 | 0.00 | 0.00 | 0.00 | 83 | 1004.3 |
| 20260505101249 | 22 | 177 | 8.0 | 14.5 | 0.00 | 0.00 | 0.00 | 83 | 1004.6 |
| 20260505100248 | 22 | 200 | 6.4 | 9.7 | 0.00 | 0.00 | 0.00 | 83 | 1004.7 |
| 20260505095247 | 21 | 179 | 6.4 | 12.9 | 0.00 | 0.00 | 0.00 | 83 | 1004.7 |
| 20260505094246 | 21 | 134 | 6.4 | 12.9 | 0.00 | 0.00 | 0.00 | 84 | 1004.8 |
| 20260505093245 | 21 | 105 | 3.2 | 6.4 | 0.00 | 0.00 | 0.00 | 84 | 1005.0 |
| 20260505092244 | 21 | 104 | 3.2 | 12.9 | 0.00 | 0.00 | 0.00 | 84 | 1005.0 |
| 20260505091252 | 21 | 289 | 1.6 | 12.9 | 0.00 | 0.00 | 0.00 | 84 | 1005.0 |
| 20260505090251 | 21 | 196 | 8.0 | 12.9 | 0.00 | 0.00 | 0.00 | 84 | 1005.0 |
| 20260505085310 | 21 | 193 | 6.4 | 14.5 | 0.00 | 0.00 | 0.00 | 83 | 1005.0 |
| 20260505084248 | 21 | 159 | 1.6 | 14.5 | 0.00 | 0.00 | 0.00 | 83 | 1005.0 |
| 20260505083246 | 21 | 178 | 3.2 | 8.0 | 0.00 | 0.00 | 0.00 | 83 | 1005.0 |
| 20260505082326 | 21 | 178 | 3.2 | 8.0 | 0.00 | 0.00 | 0.00 | 83 | 1005.0 |
| 20260505081244 | 21 | 175 | 14.5 | 16.1 | 0.00 | 0.00 | 0.00 | 82 | 1005.3 |
| 20260505080253 | 22 | 97 | 3.2 | 12.9 | 0.00 | 0.00 | 0.00 | 82 | 1005.5 |
| 20260505075251 | 22 | 120 | 4.8 | 12.9 | 0.00 | 0.00 | 0.00 | 81 | 1005.6 |
| 20260505074310 | 22 | 143 | 6.4 | 11.3 | 0.00 | 0.00 | 0.00 | 81 | 1005.9 |
| 20260505073249 | 22 | 90 | 4.8 | 11.3 | 0.00 | 0.00 | 0.00 | 80 | 1006.1 |
| 20260505072248 | 22 | 84 | 3.2 | 11.3 | 0.00 | 0.00 | 0.00 | 80 | 1006.1 |
| 20260505071306 | 22 | 142 | 8.0 | 14.5 | 0.00 | 0.00 | 0.00 | 77 | 1006.3 |
| 20260505070245 | 22 | 142 | 8.0 | 14.5 | 0.00 | 0.00 | 0.00 | 77 | 1006.3 |
| 20260505065244 | 22 | 142 | 8.0 | 14.5 | 0.00 | 0.00 | 0.00 | 77 | 1006.3 |
| 20260505064253 | 22 | 142 | 8.0 | 14.5 | 0.00 | 0.00 | 0.00 | 77 | 1006.3 |
| 20260505063251 | 22 | 142 | 8.0 | 14.5 | 0.00 | 0.00 | 0.00 | 77 | 1006.3 |
| 20260505062251 | 22 | 142 | 8.0 | 14.5 | 0.00 | 0.00 | 0.00 | 77 | 1006.3 |
| 20260505061259 | 22 | 157 | 8.0 | 14.5 | 0.00 | 0.00 | 0.00 | 77 | 1006.4 |
| 20260505055353 | 22 | 196 | 6.4 | 14.5 | 0.00 | 0.00 | 0.00 | 76 | 1006.6 |
| 20260505054252 | 22 | 222 | 6.4 | 9.7 | 0.00 | 0.00 | 0.00 | 75 | 1006.7 |
| 20260505053251 | 22 | 129 | 3.2 | 17.7 | 0.00 | 0.00 | 0.00 | 74 | 1006.6 |
| 20260505052249 | 22 | 171 | 3.2 | 17.7 | 0.00 | 0.00 | 0.00 | 74 | 1006.7 |
| 20260505051308 | 22 | 234 | 4.8 | 11.3 | 0.00 | 0.00 | 0.00 | 74 | 1006.9 |
| 20260505050247 | 23 | 98 | 3.2 | 12.9 | 0.00 | 0.00 | 0.00 | 73 | 1006.7 |
| 20260505041250 | 23 | 277 | 4.8 | 12.9 | 0.00 | 0.00 | 0.00 | 71 | 1007.1 |
| 20260505040309 | 23 | 109 | 4.8 | 11.3 | 0.00 | 0.00 | 0.00 | 71 | 1007.0 |
| 20260505035248 | 23 | 106 | 4.8 | 19.3 | 0.00 | 0.00 | 0.00 | 71 | 1007.1 |
| 20260505034247 | 23 | 101 | 6.4 | 19.3 | 0.00 | 0.00 | 0.00 | 71 | 1007.2 |
| 20260505033245 | 23 | 103 | 12.9 | 12.9 | 0.00 | 0.00 | 0.00 | 70 | 1007.2 |
| 20260505032244 | 23 | 104 | 9.7 | 12.9 | 0.00 | 0.00 | 0.00 | 70 | 1007.1 |
| 20260505031253 | 23 | 129 | 1.6 | 12.9 | 0.00 | 0.00 | 0.00 | 70 | 1007.1 |
| 20260505030252 | 23 | 149 | 1.6 | 11.3 | 0.00 | 0.00 | 0.00 | 70 | 1007.3 |
| 20260505025250 | 23 | 122 | 1.6 | 11.3 | 0.00 | 0.00 | 0.00 | 69 | 1007.2 |
| 20260505024249 | 23 | 95 | 3.2 | 9.7 | 0.00 | 0.00 | 0.00 | 69 | 1007.0 |
| 20260505023308 | 23 | 167 | 6.4 | 6.4 | 0.00 | 0.00 | 0.00 | 69 | 1007.0 |
| 20260505022246 | 23 | 161 | 4.8 | 6.4 | 0.00 | 0.00 | 0.00 | 68 | 1006.9 |
| 20260505021245 | 24 | 99 | 1.6 | 6.4 | 0.00 | 0.00 | 0.00 | 67 | 1006.9 |
| 20260505020244 | 24 | 209 | 1.6 | 12.9 | 0.00 | 0.00 | 0.00 | 67 | 1006.9 |
| 20260505015252 | 24 | 271 | 1.6 | 19.3 | 0.00 | 0.00 | 0.00 | 66 | 1006.9 |
| 20260505014312 | 24 | 333 | 3.2 | 19.3 | 0.00 | 0.00 | 0.00 | 66 | 1007.0 |
| 20260505013311 | 24 | 162 | 8.0 | 11.3 | 0.00 | 0.00 | 0.00 | 65 | 1006.8 |
| 20260505012249 | 25 | 155 | 6.4 | 17.7 | 0.00 | 0.00 | 0.00 | 65 | 1006.8 |
| 20260505011248 | 25 | 120 | 3.2 | 17.7 | 0.00 | 0.00 | 0.00 | 64 | 1006.7 |
| 20260505010246 | 25 | 141 | 4.8 | 12.9 | 0.00 | 0.00 | 0.00 | 63 | 1006.8 |
| 20260505005245 | 25 | 138 | 4.8 | 17.7 | 0.00 | 0.00 | 0.00 | 63 | 1006.8 |
| 20260505004244 | 25 | 132 | 4.8 | 17.7 | 0.00 | 0.00 | 0.00 | 63 | 1006.9 |
| 20260505003253 | 25 | 117 | 4.8 | 12.9 | 0.00 | 0.00 | 0.00 | 61 | 1007.0 |
| 20260505002251 | 26 | 140 | 4.8 | 14.5 | 0.00 | 0.00 | 0.00 | 61 | 1007.0 |
| 20260505001250 | 26 | 192 | 4.8 | 14.5 | 0.00 | 0.00 | 0.00 | 60 | 1007.0 |
| 20260505000309 | 26 | 233 | 24.1 | 24.1 | 0.00 | 0.00 | 0.00 | 60 | 1007.1 |
| 20260504235248 | 26 | 229 | 17.7 | 24.1 | 0.00 | 0.00 | 0.00 | 59 | 1007.1 |
| 20260504234246 | 26 | 148 | 3.2 | 14.5 | 0.00 | 0.00 | 0.00 | 59 | 1007.1 |
| 20260504233305 | 26 | 113 | 12.9 | 17.7 | 0.00 | 0.00 | 0.00 | 57 | 1007.3 |
| 20260504232244 | 26 | 113 | 12.9 | 17.7 | 0.00 | 0.00 | 0.00 | 57 | 1007.3 |
| 20260504231252 | 27 | 65 | 1.6 | 22.5 | 0.00 | 0.00 | 0.00 | 56 | 1007.4 |
| 20260504230251 | 27 | 111 | 4.8 | 16.1 | 0.00 | 0.00 | 0.00 | 56 | 1007.6 |
| 20260504225250 | 27 | 139 | 4.8 | 17.7 | 0.00 | 0.00 | 0.00 | 56 | 1007.6 |
| 20260504224248 | 27 | 184 | 6.4 | 17.7 | 0.00 | 0.00 | 0.00 | 54 | 1007.4 |
| 20260504223247 | 27 | 76 | 8.0 | 14.5 | 0.00 | 0.00 | 0.00 | 54 | 1007.6 |
| 20260504222246 | 27 | 72 | 6.4 | 22.5 | 0.00 | 0.00 | 0.00 | 54 | 1007.7 |
| 20260504221245 | 27 | 53 | 3.2 | 22.5 | 0.00 | 0.00 | 0.00 | 55 | 1007.9 |
| 20260504220243 | 27 | 171 | 14.5 | 14.5 | 0.00 | 0.00 | 0.00 | 55 | 1008.1 |
| 20260504215253 | 27 | 171 | 14.5 | 14.5 | 0.00 | 0.00 | 0.00 | 55 | 1008.1 |
| 20260504214251 | 27 | 80 | 3.2 | 17.7 | 0.00 | 0.00 | 0.00 | 54 | 1008.2 |
| 20260504213249 | 27 | 158 | 4.8 | 19.3 | 0.00 | 0.00 | 0.00 | 54 | 1008.5 |
| 20260504212248 | 27 | 143 | 8.0 | 22.5 | 0.00 | 0.00 | 0.00 | 54 | 1008.6 |
| 20260504211247 | 27 | 132 | 12.9 | 22.5 | 0.00 | 0.00 | 0.00 | 53 | 1008.8 |
| 20260504210246 | 27 | 88 | 8.0 | 20.9 | 0.00 | 0.00 | 0.00 | 52 | 1009.0 |
| 20260504205244 | 27 | 86 | 6.4 | 20.9 | 0.00 | 0.00 | 0.00 | 52 | 1009.2 |
| 20260504204244 | 27 | 78 | 4.8 | 16.1 | 0.00 | 0.00 | 0.00 | 52 | 1009.4 |
| 20260504203252 | 27 | 188 | 6.4 | 16.1 | 0.00 | 0.00 | 0.00 | 51 | 1009.8 |
| 20260504202251 | 27 | 207 | 6.4 | 16.1 | 0.00 | 0.00 | 0.00 | 51 | 1009.9 |
| 20260504201250 | 27 | 266 | 4.8 | 16.1 | 0.00 | 0.00 | 0.00 | 51 | 1010.0 |